When you browse on this site, cookies collect data to enhance your experience and personalize the content and advertising you see.
Visit our Privacy Policy to learn more. By continuing to use the site, you agree to this use of cookies and data.
  • en Suisse
  • Liste des pays
  • À 7 jours
  • Température de l'eau
  • Carte satellitaire
  • Carte météo
  • Widgets météo
  • user-avatar
    Se connecter

    Météo par heure à Rottenburg

    Ce jour, 24 Mai, Vendredi

    Heure Température Précipitation Vent Pression Humidité
    00:00 +10°C° 0 mm 1 m/s 727 mmHg 88%
    01:00 +10°C° 0 mm 1 m/s 727 mmHg 88%
    02:00 +10°C° 0 mm 1 m/s 727 mmHg 88%
    03:00 +9°C° 0 mm 1 m/s 727 mmHg 88%
    04:00 +9°C° 0 mm 1 m/s 727 mmHg 87%
    05:00 +11°C° 0 mm 1 m/s 727 mmHg 83%
    06:00 +12°C° 0 mm 1 m/s 727 mmHg 78%
    07:00 +14°C° 0 mm 1 m/s 727 mmHg 73%
    08:00 +16°C° 0 mm 1 m/s 727 mmHg 67%
    09:00 +19°C° 0 mm 1 m/s 727 mmHg 61%
    10:00 +21°C° 0 mm 1 m/s 727 mmHg 54%
    11:00 +22°C° 0 mm 1 m/s 727 mmHg 52%
    12:00 +22°C° 0 mm 1 m/s 727 mmHg 51%
    13:00 +23°C° 0 mm 1 m/s 726 mmHg 49%
    14:00 +23°C° 0 mm 1 m/s 726 mmHg 50%
    15:00 +23°C° 0 mm 1 m/s 726 mmHg 51%
    16:00 +23°C° 0 mm 2 m/s 726 mmHg 52%
    17:00 +22°C° 0 mm 1 m/s 725 mmHg 58%
    18:00 +21°C° 0 mm 1 m/s 725 mmHg 65%
    19:00 +19°C° 0 mm 1 m/s 725 mmHg 71%
    20:00 +16°C° 0 mm 1 m/s 725 mmHg 75%
    21:00 +14°C° 0 mm 0 m/s 725 mmHg 80%
    22:00 +12°C° 0 mm 0 m/s 725 mmHg 84%
    23:00 +11°C° 0 mm 0 m/s 725 mmHg 84%

    Demain, 25 Mai, Samedi

    Heure Température Précipitation Vent Pression Humidité
    00:00 +11°C° 0 mm 0 m/s 725 mmHg 85%
    01:00 +11°C° 0 mm 0 m/s 725 mmHg 85%
    02:00 +11°C° 0 mm 0 m/s 725 mmHg 85%
    03:00 +10°C° 0 mm 0 m/s 725 mmHg 86%
    04:00 +10°C° 0 mm 0 m/s 725 mmHg 86%
    05:00 +12°C° 0 mm 0 m/s 725 mmHg 83%
    06:00 +13°C° 0 mm 0 m/s 726 mmHg 81%
    07:00 +14°C° 0 mm 0 m/s 726 mmHg 78%
    08:00 +16°C° 0 mm 0 m/s 726 mmHg 75%
    09:00 +17°C° 0 mm 0 m/s 726 mmHg 72%
    10:00 +18°C° 0 mm 0 m/s 726 mmHg 69%
    11:00 +20°C° 0.3 mm 1 m/s 726 mmHg 69%
    12:00 +19°C° 0.3 mm 2 m/s 726 mmHg 70%
    13:00 +20°C° 0.3 mm 2 m/s 726 mmHg 70%
    14:00 +19°C° 0.6 mm 2 m/s 726 mmHg 73%
    15:00 +19°C° 0.6 mm 2 m/s 726 mmHg 76%
    16:00 +19°C° 0.6 mm 2 m/s 726 mmHg 79%
    17:00 +18°C° 0.7 mm 2 m/s 726 mmHg 82%
    18:00 +17°C° 0.7 mm 2 m/s 726 mmHg 86%
    19:00 +16°C° 0.7 mm 1 m/s 726 mmHg 89%
    20:00 +15°C° 0.2 mm 1 m/s 726 mmHg 90%
    21:00 +14°C° 0.2 mm 1 m/s 726 mmHg 92%
    22:00 +13°C° 0.2 mm 1 m/s 727 mmHg 94%
    23:00 +12°C° 0.1 mm 1 m/s 727 mmHg 94%

    Après-demain, 26 Mai, Dimanche

    Heure Température Précipitation Vent Pression Humidité
    00:00 +10°C° 0.1 mm 2 m/s 727 mmHg 95%
    01:00 +10°C° 0.1 mm 2 m/s 727 mmHg 96%
    02:00 +10°C° 0 mm 2 m/s 727 mmHg 96%
    03:00 +10°C° 0 mm 2 m/s 727 mmHg 96%
    04:00 +10°C° 0 mm 2 m/s 727 mmHg 96%
    05:00 +12°C° 0 mm 2 m/s 727 mmHg 94%
    06:00 +11°C° 0 mm 3 m/s 727 mmHg 92%
    07:00 +12°C° 0 mm 3 m/s 727 mmHg 90%
    08:00 +13°C° 0 mm 3 m/s 727 mmHg 79%
    09:00 +14°C° 0 mm 3 m/s 728 mmHg 68%
    10:00 +16°C° 0 mm 3 m/s 728 mmHg 57%
    11:00 +17°C° 0 mm 3 m/s 727 mmHg 56%
    12:00 +17°C° 0 mm 3 m/s 727 mmHg 55%
    13:00 +18°C° 0 mm 3 m/s 727 mmHg 54%
    14:00 +18°C° 0 mm 3 m/s 727 mmHg 56%
    15:00 +19°C° 0 mm 3 m/s 727 mmHg 58%
    16:00 +20°C° 0 mm 2 m/s 726 mmHg 59%
    17:00 +19°C° 0 mm 2 m/s 726 mmHg 65%
    18:00 +18°C° 0 mm 2 m/s 726 mmHg 71%
    19:00 +19°C° 0 mm 1 m/s 725 mmHg 77%
    20:00 +16°C° 0 mm 1 m/s 725 mmHg 81%
    21:00 +15°C° 0 mm 2 m/s 725 mmHg 85%
    22:00 +13°C° 0 mm 2 m/s 725 mmHg 89%
    23:00 +13°C° 0 mm 2 m/s 725 mmHg 89%

    27 Mai, Lundi

    Heure Température Précipitation Vent Pression Humidité
    00:00 +12°C° 0 mm 2 m/s 725 mmHg 89%
    01:00 +12°C° 0 mm 2 m/s 725 mmHg 90%
    02:00 +12°C° 0 mm 2 m/s 724 mmHg 91%
    03:00 +12°C° 0 mm 2 m/s 724 mmHg 92%
    04:00 +13°C° 0 mm 2 m/s 724 mmHg 93%
    05:00 +14°C° 0 mm 2 m/s 724 mmHg 91%
    06:00 +15°C° 0 mm 2 m/s 724 mmHg 89%
    07:00 +16°C° 0 mm 3 m/s 724 mmHg 87%
    08:00 +16°C° 0.1 mm 3 m/s 724 mmHg 83%
    09:00 +17°C° 0.1 mm 4 m/s 724 mmHg 79%
    10:00 +18°C° 0.1 mm 4 m/s 724 mmHg 75%
    11:00 +19°C° 0.3 mm 4 m/s 724 mmHg 74%
    12:00 +19°C° 0.3 mm 4 m/s 724 mmHg 73%
    13:00 +19°C° 0.3 mm 5 m/s 723 mmHg 72%
    14:00 +19°C° 0.2 mm 4 m/s 723 mmHg 72%
    15:00 +19°C° 0.2 mm 4 m/s 723 mmHg 71%
    16:00 +19°C° 0.2 mm 4 m/s 722 mmHg 70%
    17:00 +18°C° 0 mm 4 m/s 722 mmHg 73%
    18:00 +17°C° 0 mm 3 m/s 722 mmHg 76%
    19:00 +16°C° 0 mm 2 m/s 722 mmHg 79%
    20:00 +15°C° 0 mm 2 m/s 722 mmHg 84%
    21:00 +13°C° 0 mm 1 m/s 722 mmHg 89%
    22:00 +12°C° 0 mm 1 m/s 722 mmHg 94%
    23:00 +12°C° 0 mm 1 m/s 722 mmHg 93%

    28 Mai, Mardi

    Heure Température Précipitation Vent Pression Humidité
    00:00 +12°C° 0 mm 1 m/s 722 mmHg 93%
    01:00 +12°C° 0 mm 1 m/s 722 mmHg 92%
    02:00 +12°C° 0.1 mm 1 m/s 722 mmHg 93%
    03:00 +11°C° 0.1 mm 1 m/s 722 mmHg 93%
    04:00 +11°C° 0.1 mm 1 m/s 721 mmHg 94%
    05:00 +11°C° 0.1 mm 1 m/s 721 mmHg 92%
    06:00 +12°C° 0.1 mm 1 m/s 721 mmHg 91%
    07:00 +12°C° 0.1 mm 1 m/s 721 mmHg 89%
    08:00 +12°C° 0.1 mm 1 m/s 721 mmHg 86%
    09:00 +13°C° 0.1 mm 2 m/s 722 mmHg 83%
    10:00 +13°C° 0.1 mm 2 m/s 722 mmHg 80%
    11:00 +14°C° 0.3 mm 1 m/s 722 mmHg 80%
    12:00 +14°C° 0.3 mm 1 m/s 722 mmHg 80%
    13:00 +14°C° 0.3 mm 1 m/s 722 mmHg 80%
    14:00 +14°C° 0.3 mm 1 m/s 722 mmHg 81%
    15:00 +14°C° 0.3 mm 1 m/s 722 mmHg 82%
    16:00 +13°C° 0.3 mm 0 m/s 722 mmHg 83%
    17:00 +13°C° 0.4 mm 0 m/s 722 mmHg 86%
    18:00 +12°C° 0.4 mm 0 m/s 722 mmHg 89%
    19:00 +12°C° 0.4 mm 0 m/s 722 mmHg 92%
    20:00 +11°C° 0.4 mm 0 m/s 723 mmHg 93%
    21:00 +11°C° 0.4 mm 1 m/s 723 mmHg 94%
    22:00 +11°C° 0.4 mm 1 m/s 723 mmHg 95%
    23:00 +11°C° 0.3 mm 1 m/s 723 mmHg 96%

    29 Mai, Mercredi

    Heure Température Précipitation Vent Pression Humidité
    00:00 +10°C° 0.3 mm 1 m/s 723 mmHg 96%
    01:00 +10°C° 0.3 mm 1 m/s 723 mmHg 97%
    02:00 +10°C° 0.4 mm 1 m/s 723 mmHg 97%
    03:00 +9°C° 0.4 mm 2 m/s 723 mmHg 98%
    04:00 +9°C° 0.4 mm 2 m/s 724 mmHg 98%
    05:00 +9°C° 0.8 mm 2 m/s 724 mmHg 98%
    06:00 +9°C° 0.8 mm 3 m/s 724 mmHg 98%
    07:00 +9°C° 0.8 mm 3 m/s 724 mmHg 97%
    08:00 +9°C° 0.5 mm 3 m/s 724 mmHg 97%
    09:00 +9°C° 0.5 mm 3 m/s 725 mmHg 96%
    10:00 +9°C° 0.5 mm 3 m/s 725 mmHg 96%
    11:00 +9°C° 0.4 mm 3 m/s 725 mmHg 95%
    12:00 +10°C° 0.4 mm 3 m/s 725 mmHg 94%
    13:00 +10°C° 0.4 mm 2 m/s 726 mmHg 93%
    14:00 +12°C° 0.3 mm 2 m/s 726 mmHg 91%
    15:00 +12°C° 0.3 mm 2 m/s 726 mmHg 89%
    16:00 +12°C° 0.3 mm 2 m/s 726 mmHg 88%
    17:00 +12°C° 0.1 mm 1 m/s 727 mmHg 88%
    18:00 +13°C° 0.1 mm 1 m/s 727 mmHg 89%
    19:00 +13°C° 0.1 mm 1 m/s 727 mmHg 90%
    20:00 +11°C° 0 mm 1 m/s 727 mmHg 91%
    21:00 +10°C° 0 mm 1 m/s 728 mmHg 92%
    22:00 +9°C° 0 mm 1 m/s 728 mmHg 93%
    23:00 +7°C° 0 mm 2 m/s 728 mmHg 94%
    Voir plus